sat.trackr.live / text

‹ back to catalog

ONEWEB-0144

NORAD 47290 · 2020-100AJ

PAYLOAD ACTIVE UNKNOWN

§ Identity

Operator
Country
UK
Launch date
2020-12-18
Launch site
VOSTO
Launch vehicle
Mass (kg)
RCS (m²)

Purposes: comms

External: N2YO · Heavens-Above · Gunter

§ Orbital elements

Epoch: 2026-05-25T02:43:46.113888Z

Period
109.72 min
Inclination
87.8964°
Eccentricity
0.0001489
Mean motion
13.12441504 rev/d
Perigee alt
1,212.6 km
Apogee alt
1,214.9 km
Semi-major
7,591.9 km
B*
1.2241e-3
RAAN
355.2291°
Arg perigee
93.2270°
Mean anomaly
266.9029°
Rev number
26,154

§ Raw data

ONEWEB-01441 47290U 20100AJ  26145.11372817  .00000453  00000+0  12241-2 0  99962 47290  87.8964 355.2291 0001489  93.2270 266.9029 13.12441504261545

JSON: /api/v1/satellites/47290 · /tle

For live sub-satellite position, see the globe view (requires WebGL).

§ Visibility from observer

Set your observer location to see the next 7 days of passes ≥ 10°. The values pass through the URL so the page stays shareable.

No JS? Fill the form by hand. The geolocation button needs JavaScript.